Regional Weather Roundup
Issued by NWS

Home | Current Version | Previous Version | Graphics & Text | Print | Product List | Glossary On
Versions: 1 2 3 4 5 6 7 8 9 10 11 12 13 14 15 16 17 18 19 20 21 22 23 24 25 26 27
000
ASUS45 KBOU 222307
RWRCO

WEATHER ROUNDUP FOR COLORADO
NATIONAL WEATHER SERVICE DENVER/BOULDER CO
400 PM MST SUN JAN 22 2017

NOTE: "FAIR" INDICATES FEW OR NO CLOUDS BELOW 12000 FEET WITH NO
SIGNIFICANT WEATHER AND/OR OBSTRUCTIONS TO VISIBILITY.

COZ001>005-013-030-031-230000-
...NORTHWEST COLORADO...

CITY           SKY/WX    TMP DP  RH WIND       PRES   REMARKS
CRAIG          FAIR      27  15  61 CALM      29.93F
HAYDEN         FAIR      25  10  54 SE12      29.92F WCI  14
MEEKER         FAIR      32  16  51 SW6       29.93F WCI  26
MOUNT WERNER   NOT AVBL
STEAMBOAT SPGS FAIR      28  13  53 CALM      29.93F
WALDEN           N/A     21  10  63 SE10      29.91F WCI  10
$$

COZ006>008-011-230000-
...WEST CENTRAL VALLEYS...

CITY           SKY/WX    TMP DP  RH WIND       PRES   REMARKS
GRAND JUNCTION CLOUDY    39  22  50 S13       30.00R
MONTROSE       CLOUDY    37  16  42 CALM      30.03S
EAGLE          MOSUNNY   32  16  51 W7        29.98F WCI  26
RIFLE          FAIR      35  19  52 W3        29.98F
DELTA          CLOUDY    40  20  46 N8        30.03S
NUCLA          CLOUDY    32  23  69 S7        30.10R WCI  26
$$

COZ017>023-064>068-230000-
...SOUTHWEST COLORADO...

CITY           SKY/WX    TMP DP  RH WIND       PRES   REMARKS
DURANGO        CLOUDY    27  19  72 NE3       30.10S
CORTEZ         CLOUDY    33  25  72 E3        30.09R
PAGOSA SPRINGS FAIR      28  16  60 W3        30.08R
TELLURIDE      NOT AVBL
WOLF CREEK PAS CLOUDY     9   9 100 SW16G22   30.04R WCI  -9
$$

COZ009-010-012-014-032>034-037-058>063-230000-
...CENTRAL COLORADO...

CITY           SKY/WX    TMP DP  RH WIND       PRES   REMARKS
ASPEN          FAIR      28  13  53 CALM      29.93F
BUENA VISTA    FAIR      28   7  41 SW10      29.93S WCI  19
COPPER MTN     FAIR      18   0  45 MISG      29.92S
BERTHOUD PASS  NOT AVBL
COTTONWOOD PAS FAIR      28  -8  20 SW20G35   29.92F WCI  15
GUNNISON       CLOUDY    20  13  74 E6        30.03F WCI  12
KREMMLING      FAIR      36  12  38 SW7       29.96S
LEADVILLE      FAIR      21   4  47 VRB3      29.91S
MONARCH PASS     N/A      9   5  85 W6        30.05R WCI  -1
SALIDA         FAIR      33   6  33 SW12      30.03R WCI  24
SUNLIGHT       FOG      N/A N/A N/A S15G23    29.95F VSB 1/4
WILKERSON PASS FAIR      19   0  42 SW12G21   29.91F WCI   7
$$

COZ069>075-230000-
...SAN LUIS VALLEY/SANGRE DE CRISTO MOUNTAINS...

CITY           SKY/WX    TMP DP  RH WIND       PRES   REMARKS
ALAMOSA        FAIR      28  19  69 S8        30.00S WCI  20
LA VETA PASS   FAIR      21   5  49 NE33G43   29.90F WCI   2
SAGUACHE       FAIR      27  14  59 S7        30.03R WCI  19
$$

COZ035-036-038>040-230000-
...NORTHERN COLORADO FRONT RANGE...

CITY           SKY/WX    TMP DP  RH WIND       PRES   REMARKS
DENVER INTL AP PTSUNNY   43  11  27 E9        29.88R
DMNS CITY PARK   N/A     43   4  19 E8G20     29.87S
AURORA         PTSUNNY   41  10  27 E7        29.89R
FRONT RANGE AP MOSUNNY   45  10  24 NE7       29.89S
ERIE MUNI ARPT FAIR      46   2  16 E6        29.87F
BOULDER MUN AP FAIR      45   9  23 S8G16     29.86S
CENTENNIAL     PTSUNNY   38   9  30 E8        29.88R
BROOMFIELD     PTSUNNY   45   5  19 SE8       29.88R
FORT COLLINS   FAIR      45   9  23 SE9       29.87S
LONGMONT       FAIR      49   4  15 SW7       29.88S
$$

COZ041-046-047-076>085-087-088-230000-
...PIKES PEAK/PALMER DIVIDE AND SOUTHERN FOOTHILLS...

CITY           SKY/WX    TMP DP  RH WIND       PRES   REMARKS
COLO. SPRINGS  PTSUNNY   41   4  21 SE12      29.91R
A. F. ACADEMY  FAIR      40  -6  13 SW3       29.89R
SCHRIEVER AFB  NOT AVBL
ELLICOTT       FAIR     N/A N/A N/A S8        29.91R
FALCON         FAIR      37   4  25 SE8       29.92S
FORT CARSON    NOT AVBL
LIMON          FAIR      41  10  28 NW3       29.91F
MONUMENT HILL  FAIR      34   9  35 SE5       29.91R WCI  30
TRINIDAD       FAIR      35  22  58 S10       29.93S WCI  27
$$

COZ042>045-048>051-090-091-230000-
...NORTHEAST COLORADO...

CITY           SKY/WX    TMP DP  RH WIND       PRES   REMARKS
GREELEY ARPT   FAIR      47   9  21 SE9       29.88S
AKRON          FAIR      42  14  32 NW14      29.90R
BURLINGTON     FAIR      46  23  40 NW9       29.91F
WRAY           NOT AVBL
STERLING       FAIR      45  19  36 NW12      29.89R
HOLYOKE        FAIR      46  21  36 NW9       29.89S
FORT MORGAN    FAIR      44  14  29 N7        29.91R
$$

COZ086-089-092>099-230000-
...SOUTHEAST COLORADO...

CITY           SKY/WX    TMP DP  RH WIND       PRES   REMARKS
PUEBLO         FAIR      49  13  23 S14       29.90R
LA JUNTA       FAIR      43  26  51 S7        29.94S
LAMAR          FAIR      49  16  26 N8        29.92S
SPRINGFIELD      N/A     45  18  34 N10       29.95R
$$




USA.gov is the U.S. government's official web portal to all federal, state and local government web resources and services.